Location: Bemmer
(51.5498°N, 5.6249°E)
Time: 01:34:01
(UTC+00:00)

USA 234 - Pass Details

Date: 03 March 2021
Orbit: 1102 x 1105 km, 123.0° (Epoch: 13 April)

Event Time Altitude Azimuth Distance (km) Brightness Sun altitude
Exits shadow 21:27:18 56° 285° (WNW) 1,298 3.7 -36.3°
Drops below altitude 10° 21:32:28 10° 260° (W) 2,962 5.8 -36.8°
Sets 21:34:57 0° 258° (WSW) 3,919 6.5 -37.1°
